Cold Bay, AK

3:02 PM AKDT on July 26, 2017 (GMT -0800)
Cold Bay

Weather History for PACD - May, 2013

Change the Weather History Date:

Saturday, May 4, 2013

  Actual Average Record
Temperature  
Mean Temperature 32 °F 38 °F  
Max Temperature 35 °F 43 °F 50 °F (2004)
Min Temperature 28 °F 33 °F 23 °F (2010)
Degree Days  
Heating Degree Days 33 27  
Month to date heating degree days 127 109  
Since 1 July heating degree days 8523 8339  
Cooling Degree Days 0 0  
Month to date cooling degree days 0 0  
Year to date cooling degree days 0 0  
Moisture  
Dew Point 19 °F    
Average Humidity 62    
Maximum Humidity 72    
Minimum Humidity 49    
Precipitation  
Precipitation 0.00 in 0.08 in 0.54 in (1998)
Month to date precipitation 0.17 0.30  
Year to date precipitation 11.82 11.56  
Snow  
Snow 0.00 in 0.10 in 2.70 in (1969)
Month to date snowfall T 0.4  
Since 1 July snowfall 64.2 72.2  
Snow Depth 0.00 in    
Sea Level Pressure  
Sea Level Pressure 30.25 in    
Wind  
Wind Speed 13 mph (NNW)    
Max Wind Speed 21 mph    
Max Gust Speed 26 mph    
Visibility 10 miles    
Events      
T = Trace of Precipitation, MM = Missing Value Source: NWS Daily Summary

Daily Weather History Graph

Daily Weather History Graph

Search for Another Location

Airport or City:

Trip Planner

Search our weather history database for the weather conditions in past years. The results will help you decide how hot, cold, wet, or windy it might be!

Date:

Astronomy

May. 04, 2013 Rise Set
Actual Time 7:02 AM AKDT 10:34 PM AKDT
Civil Twilight 6:18 AM AKDT 11:18 PM AKDT
Nautical Twilight 5:17 AM AKDT 12:20 AM AKDT
Astronomical Twilight 3:34 AM AKDT 2:10 AM AKDT
Moon 4:59 AM AKDT (5/4) 4:57 PM AKDT (5/4)
Length of Visible Light 17h 00m
Length of Day
15h 31m
Waning Crescent, 25% of the Moon is Illuminated
May 4
Waning Crescent
May 9
New
May 17
First Quarter
May 24
Full
May 31
Last Quarter

Hourly Weather History & Observations

Time (AKDT) Temp. Windchill Dew Point Humidity Pressure Visibility Wind Dir Wind Speed Gust Speed Precip Events Conditions
12:53 AM 28.0 °F 14.9 °F 17.1 °F 63% 30.17 in 10.0 mi North 19.6 mph 25.3 mph N/A   Overcast
1:53 AM 28.0 °F 16.1 °F 19.0 °F 69% 30.17 in 10.0 mi NNW 16.1 mph - N/A   Overcast
2:53 AM 28.0 °F 16.1 °F 18.0 °F 66% 30.17 in 10.0 mi NNW 16.1 mph - N/A   Overcast
3:53 AM 28.0 °F 15.3 °F 18.0 °F 66% 30.16 in 10.0 mi NNW 18.4 mph - N/A   Overcast
4:53 AM 28.0 °F 16.1 °F 17.1 °F 63% 30.17 in 10.0 mi NW 16.1 mph - N/A   Overcast
5:53 AM 28.0 °F 16.1 °F 17.1 °F 63% 30.17 in 10.0 mi NNW 16.1 mph - N/A   Overcast
6:53 AM 28.0 °F 15.3 °F 17.1 °F 63% 30.19 in 10.0 mi NNW 18.4 mph 26.5 mph N/A   Overcast
7:53 AM 28.0 °F 15.7 °F 18.0 °F 66% 30.20 in 10.0 mi NNW 17.3 mph - N/A   Overcast
8:53 AM 28.9 °F 17.7 °F 18.0 °F 64% 30.22 in 10.0 mi NW 15.0 mph - N/A   Overcast
9:53 AM 30.0 °F 18.3 °F 19.0 °F 64% 30.22 in 7.0 mi NW 17.3 mph - N/A   Overcast
10:53 AM 30.9 °F 20.2 °F 18.0 °F 59% 30.24 in 10.0 mi NNW 15.0 mph - N/A   Overcast
11:53 AM 32.0 °F 21.2 °F 19.0 °F 59% 30.25 in 9.0 mi NW 16.1 mph - N/A   Overcast
12:53 PM 32.0 °F 21.6 °F 19.0 °F 59% 30.27 in 10.0 mi NW 15.0 mph 20.7 mph N/A   Overcast
1:53 PM 34.0 °F 24.2 °F 19.9 °F 56% 30.28 in 10.0 mi NNW 15.0 mph 18.4 mph N/A   Overcast
2:53 PM 34.0 °F 24.2 °F 21.0 °F 59% 30.29 in 10.0 mi NW 15.0 mph - N/A   Overcast
3:53 PM 33.1 °F 23.9 °F 21.0 °F 61% 30.30 in 10.0 mi NW 12.7 mph - N/A   Overcast
4:53 PM 33.1 °F 23.9 °F 21.9 °F 64% 30.30 in 9.0 mi NW 12.7 mph - N/A   Overcast
5:53 PM 33.1 °F 24.9 °F 21.0 °F 61% 30.30 in 10.0 mi NW 10.4 mph - N/A   Overcast
6:53 PM 33.1 °F 23.9 °F 21.0 °F 61% 30.30 in 10.0 mi NW 12.7 mph - N/A   Overcast
7:53 PM 32.0 °F 24.2 °F 21.9 °F 66% 30.30 in 10.0 mi NNW 9.2 mph - N/A   Overcast
8:53 PM 30.9 °F 22.2 °F 19.9 °F 64% 30.31 in 10.0 mi WNW 10.4 mph - N/A   Overcast
9:53 PM 30.9 °F 23.5 °F 21.0 °F 67% 30.32 in 10.0 mi North 8.1 mph - N/A   Overcast
10:53 PM 30.9 °F 24.3 °F 21.9 °F 69% 30.33 in 10.0 mi North 6.9 mph - N/A   Overcast
11:53 PM 30.0 °F 26.5 °F 21.9 °F 72% 30.33 in 10.0 mi NNW 3.5 mph - N/A   Overcast